owner,sensor,date,latitude,longitude,vertical_datum,wind_speed,wind_to_direction,wind_speed_of_gust,qcFlag 
TABS,ioos:station:wmo:42047:1,2013-01-01T00:00:00Z,27.8966,-93.5973,4.0,5.86325848,154.0033518,7.11,'11111222,11111222,11111222' 
TABS,ioos:station:wmo:42047:1,2013-01-01T00:30:00Z,27.8966,-93.5973,4.0,7.005483566,150.2148211,8.25,'11111222,11111222,11111222' 
TABS,ioos:station:wmo:42047:1,2013-01-01T01:00:00Z,27.8966,-93.5973,4.0,6.115889142,141.7062668,7.72,'11111222,11111222,11111222' 
TABS,ioos:station:wmo:42047:1,2013-01-01T01:30:00Z,27.8966,-93.5973,4.0,6.565759667,141.8038631,8.08,'11111222,11111222,11111222' 
TABS,ioos:station:wmo:42047:1,2013-01-01T02:00:00Z,27.8966,-93.5973,4.0,6.420591873,135.2527178,7.39,'11111222,11111222,11111222' 
TABS,ioos:station:wmo:42047:1,2013-01-01T02:30:00Z,27.8966,-93.5973,4.0,6.70636265,144.6513163,8.21,'11111222,11111222,11111222' 
TABS,ioos:station:wmo:42047:1,2013-01-01T03:00:00Z,27.8966,-93.5973,4.0,6.289173237,148.4584334,7.77,'11111222,11111222,11111222' 
TABS,ioos:station:wmo:42047:1,2013-01-01T03:30:00Z,27.8966,-93.5973,4.0,6.279363025,145.9053122,7.37,'11111222,11111222,11111222' 
TABS,ioos:station:wmo:42047:1,2013-01-01T04:00:00Z,27.8966,-93.5973,4.0,7.019131,150.1845259,8.13,'11111222,11111222,11111222' 
TABS,ioos:station:wmo:42047:1,2013-01-01T04:30:00Z,27.8966,-93.5973,4.0,6.773189795,145.7705981,8.11,'11111222,11111222,11111222' 
TABS,ioos:station:wmo:42047:1,2013-01-01T05:00:00Z,27.8966,-93.5973,4.0,7.407361204,144.2288307,8.82,'11111222,11111222,11111222' 
TABS,ioos:station:wmo:42047:1,2013-01-01T05:30:00Z,27.8966,-93.5973,4.0,8.013301442,145.5764651,9.55,'11111222,11111222,11111222' 
TABS,ioos:station:wmo:42047:1,2013-01-01T06:00:00Z,27.8966,-93.5973,4.0,8.547057973,147.5188113,9.93,'11111222,11111222,11111222' 
TABS,ioos:station:wmo:42047:1,2013-01-01T06:30:00Z,27.8966,-93.5973,4.0,7.919911616,148.7387604,8.9,'11111222,11111222,11111222' 
TABS,ioos:station:wmo:42047:1,2013-01-01T07:00:00Z,27.8966,-93.5973,4.0,7.804678084,154.2560198,9.48,'11111222,11111222,11111222' 
TABS,ioos:station:wmo:42047:1,2013-01-01T07:30:00Z,27.8966,-93.5973,4.0,8.038662824,159.9197195,9.54,'11111222,11111222,11111222' 
TABS,ioos:station:wmo:42047:1,2013-01-01T08:00:00Z,27.8966,-93.5973,4.0,7.337915235,167.0056241,8.81,'11111222,11111222,11111222' 
TABS,ioos:station:wmo:42047:1,2013-01-01T08:30:00Z,27.8966,-93.5973,4.0,7.512289931,164.2434271,9.07,'11111222,11111222,11111222' 
TABS,ioos:station:wmo:42047:1,2013-01-01T09:00:00Z,27.8966,-93.5973,4.0,7.327189093,172.2350626,8.81,'11111222,11111222,11111222' 
TABS,ioos:station:wmo:42047:1,2013-01-01T09:30:00Z,27.8966,-93.5973,4.0,6.988769563,177.1296239,8.5,'11111222,11111222,11111222' 
TABS,ioos:station:wmo:42047:1,2013-01-01T10:00:00Z,27.8966,-93.5973,4.0,7.78005784,179.7792772,9.25,'11111222,11111222,11111222' 
TABS,ioos:station:wmo:42047:1,2013-01-01T10:30:00Z,27.8966,-93.5973,4.0,7.496032284,176.2522412,8.58,'11111222,11111222,11111222' 
TABS,ioos:station:wmo:42047:1,2013-01-01T11:00:00Z,27.8966,-93.5973,4.0,7.870762352,174.1664923,9.14,'11111222,11111222,11111222' 
TABS,ioos:station:wmo:42047:1,2013-01-01T11:30:00Z,27.8966,-93.5973,4.0,7.876503031,182.328611,9.38,'11111222,11111222,11111222' 
TABS,ioos:station:wmo:42047:1,2013-01-01T12:00:00Z,27.8966,-93.5973,4.0,7.420545802,179.3052839,8.93,'11111222,11111222,11111222' 
TABS,ioos:station:wmo:42047:1,2013-01-01T12:30:00Z,27.8966,-93.5973,4.0,8.157236052,176.274917,9.43,'11111222,11111222,11111222' 
TABS,ioos:station:wmo:42047:1,2013-01-01T13:00:00Z,27.8966,-93.5973,4.0,9.060932623,180.822277,10.8,'11111222,11111222,11111222' 
TABS,ioos:station:wmo:42047:1,2013-01-01T13:30:00Z,27.8966,-93.5973,4.0,7.866511298,182.3315701,9.1,'11111222,11111222,11111222' 
TABS,ioos:station:wmo:42047:1,2013-01-01T14:00:00Z,27.8966,-93.5973,4.0,7.673447726,178.2826028,9.42,'11111222,11111222,11111222' 
TABS,ioos:station:wmo:42047:1,2013-01-01T14:30:00Z,27.8966,-93.5973,4.0,7.218427807,174.9135867,8.72,'11111222,11111222,11111222' 
TABS,ioos:station:wmo:42047:1,2013-01-01T15:00:00Z,27.8966,-93.5973,4.0,7.841798263,176.8568637,9.32,'11111222,11111222,11111222' 
TABS,ioos:station:wmo:42047:1,2013-01-01T15:30:00Z,27.8966,-93.5973,4.0,7.550662223,179.2413721,9.67,'11111222,11111222,11111222' 
TABS,ioos:station:wmo:42047:1,2013-01-01T16:00:00Z,27.8966,-93.5973,4.0,7.772464217,183.2454578,8.9,'11111222,11111222,11111222' 
TABS,ioos:station:wmo:42047:1,2013-01-01T16:30:00Z,27.8966,-93.5973,4.0,6.950064748,180.2475283,8.05,'11111222,11111222,11111222' 
TABS,ioos:station:wmo:42047:1,2013-01-01T17:00:00Z,27.8966,-93.5973,4.0,7.531600096,184.3405597,8.76,'11111222,11111222,11111222' 
TABS,ioos:station:wmo:42047:1,2013-01-01T17:30:00Z,27.8966,-93.5973,4.0,7.697077367,182.4574237,9.31,'11111222,11111222,11111222' 
TABS,ioos:station:wmo:42047:1,2013-01-01T18:00:00Z,27.8966,-93.5973,4.0,8.014992202,183.5051901,9.46,'11111222,11111222,11111222' 
TABS,ioos:station:wmo:42047:1,2013-01-01T18:30:00Z,27.8966,-93.5973,4.0,8.056357738,182.2766028,9.52,'11111222,11111222,11111222' 
TABS,ioos:station:wmo:42047:1,2013-01-01T19:00:00Z,27.8966,-93.5973,4.0,7.692658838,184.3989055,9.71,'11111222,11111222,11111222' 
TABS,ioos:station:wmo:42047:1,2013-01-01T19:30:00Z,27.8966,-93.5973,4.0,8.325893345,188.7044963,9.93,'11111222,11111222,11111222' 
TABS,ioos:station:wmo:42047:1,2013-01-01T20:00:00Z,27.8966,-93.5973,4.0,8.511380617,187.4257966,9.82,'11111222,11111222,11111222' 
TABS,ioos:station:wmo:42047:1,2013-01-01T20:30:00Z,27.8966,-93.5973,4.0,8.56338718,186.9758302,9.85,'11111222,11111222,11111222' 
TABS,ioos:station:wmo:42047:1,2013-01-01T21:00:00Z,27.8966,-93.5973,4.0,8.743328885,187.4259506,10.03,'11111222,11111222,11111222' 
TABS,ioos:station:wmo:42047:1,2013-01-01T21:30:00Z,27.8966,-93.5973,4.0,8.518121859,193.5796318,9.89,'11111222,11111222,11111222' 
TABS,ioos:station:wmo:42047:1,2013-01-01T22:00:00Z,27.8966,-93.5973,4.0,7.338937253,196.9536625,8.87,'11111222,11111222,11111222' 
TABS,ioos:station:wmo:42047:1,2013-01-01T22:30:00Z,27.8966,-93.5973,4.0,7.244949965,200.8616581,8.51,'11111222,11111222,11111222' 
TABS,ioos:station:wmo:42047:1,2013-01-01T23:00:00Z,27.8966,-93.5973,4.0,6.534011019,207.0357897,7.99,'11111222,11111222,11111222' 
TABS,ioos:station:wmo:42047:1,2013-01-01T23:30:00Z,27.8966,-93.5973,4.0,7.051595564,209.2915041,8.54,'11111222,11111222,11111222' 
TABS,ioos:station:wmo:42047:1,2013-01-02T00:00:00Z,27.8966,-93.5973,4.0,7.196533888,209.5573949,8.75,'11111222,11111222,11111222' 
TABS,ioos:station:wmo:42047:1,2013-01-02T00:30:00Z,27.8966,-93.5973,4.0,9.113561324,298.2240456,10.87,'11111222,11111222,11111222' 
TABS,ioos:station:wmo:42047:1,2013-01-02T01:00:00Z,27.8966,-93.5973,4.0,8.507202831,320.7720777,9.87,'11111222,11111222,11111222' 
TABS,ioos:station:wmo:42047:1,2013-01-02T01:30:00Z,27.8966,-93.5973,4.0,8.674018676,334.8233348,10.56,'11111222,11111222,11111222' 
TABS,ioos:station:wmo:42047:1,2013-01-02T02:00:00Z,27.8966,-93.5973,4.0,8.493997881,346.5198298,10.35,'11111222,11111222,11111222' 
TABS,ioos:station:wmo:42047:1,2013-01-02T02:30:00Z,27.8966,-93.5973,4.0,8.898162732,340.1597623,10.26,'11111222,11111222,11111222' 
TABS,ioos:station:wmo:42047:1,2013-01-02T03:00:00Z,27.8966,-93.5973,4.0,8.762813475,345.9318625,10.41,'11111222,11111222,11111222' 
TABS,ioos:station:wmo:42047:1,2013-01-02T03:30:00Z,27.8966,-93.5973,4.0,8.813971863,353.0924897,10.71,'11111222,11111222,11111222' 
TABS,ioos:station:wmo:42047:1,2013-01-02T04:00:00Z,27.8966,-93.5973,4.0,8.92534033,11.04531411,10.36,'11111222,11111222,11111222' 
TABS,ioos:station:wmo:42047:1,2013-01-02T04:30:00Z,27.8966,-93.5973,4.0,8.498293946,12.71138688,10.58,'11111222,11111222,11111222' 
TABS,ioos:station:wmo:42047:1,2013-01-02T05:00:00Z,27.8966,-93.5973,4.0,8.435366026,12.66854675,10.19,'11111222,11111222,11111222' 
TABS,ioos:station:wmo:42047:1,2013-01-02T05:30:00Z,27.8966,-93.5973,4.0,8.78482783,18.31094675,10.45,'11111222,11111222,11111222' 
TABS,ioos:station:wmo:42047:1,2013-01-02T06:00:00Z,27.8966,-93.5973,4.0,8.259636796,24.7651824,9.7,'11111222,11111222,11111222' 
TABS,ioos:station:wmo:42047:1,2013-01-02T06:30:00Z,27.8966,-93.5973,4.0,8.438489201,16.52340136,10.67,'11111222,11111222,11111222' 
TABS,ioos:station:wmo:42047:1,2013-01-02T07:00:00Z,27.8966,-93.5973,4.0,8.088015826,30.62329996,9.56,'11111222,11111222,11111222' 
TABS,ioos:station:wmo:42047:1,2013-01-02T07:30:00Z,27.8966,-93.5973,4.0,8.225083586,30.86790137,10.19,'11111222,11111222,11111222' 
TABS,ioos:station:wmo:42047:1,2013-01-02T08:00:00Z,27.8966,-93.5973,4.0,8.124856922,24.89307845,9.91,'11111222,11111222,11111222' 
TABS,ioos:station:wmo:42047:1,2013-01-02T08:30:00Z,27.8966,-93.5973,4.0,7.719384691,30.51794886,9.31,'11111222,11111222,11111222' 
TABS,ioos:station:wmo:42047:1,2013-01-02T09:00:00Z,27.8966,-93.5973,4.0,8.264944041,30.38090677,10.29,'11111222,11111222,11111222' 
TABS,ioos:station:wmo:42047:1,2013-01-02T09:30:00Z,27.8966,-93.5973,4.0,9.01608008,37.11108518,10.88,'11111222,11111222,11111222' 
TABS,ioos:station:wmo:42047:1,2013-01-02T10:00:00Z,27.8966,-93.5973,4.0,8.09108151,46.20151457,10.46,'11111222,11111222,11111222' 
TABS,ioos:station:wmo:42047:1,2013-01-02T10:30:00Z,27.8966,-93.5973,4.0,8.169657276,46.43797408,10.61,'11111222,11111222,11111222' 
TABS,ioos:station:wmo:42047:1,2013-01-02T11:00:00Z,27.8966,-93.5973,4.0,8.086538196,24.47300639,10.0,'11111222,11111222,11111222' 
TABS,ioos:station:wmo:42047:1,2013-01-02T11:30:00Z,27.8966,-93.5973,4.0,8.209122974,24.16064817,9.64,'11111222,11111222,11111222' 
TABS,ioos:station:wmo:42047:1,2013-01-02T12:00:00Z,27.8966,-93.5973,4.0,9.493513575,32.35055652,11.09,'11111222,11111222,11111222' 
TABS,ioos:station:wmo:42047:1,2013-01-02T12:30:00Z,27.8966,-93.5973,4.0,8.640601831,29.23466212,10.69,'11111222,11111222,11111222' 
TABS,ioos:station:wmo:42047:1,2013-01-02T13:00:00Z,27.8966,-93.5973,4.0,9.813322577,23.92665354,11.76,'11111222,11111222,11111222' 
TABS,ioos:station:wmo:42047:1,2013-01-02T13:30:00Z,27.8966,-93.5973,4.0,10.10581021,23.7492285,12.32,'11111222,11111222,11111222' 
TABS,ioos:station:wmo:42047:1,2013-01-02T14:00:00Z,27.8966,-93.5973,4.0,9.865581584,26.74658647,11.47,'11111222,11111222,11111222' 
TABS,ioos:station:wmo:42047:1,2013-01-02T14:30:00Z,27.8966,-93.5973,4.0,9.459053864,13.69810671,10.9,'11111222,11111222,11111222' 
TABS,ioos:station:wmo:42047:1,2013-01-02T15:00:00Z,27.8966,-93.5973,4.0,9.878486726,14.12040324,11.59,'11111222,11111222,11111222' 
TABS,ioos:station:wmo:42047:1,2013-01-02T15:30:00Z,27.8966,-93.5973,4.0,10.67416039,20.62489325,12.67,'11111222,11111222,11111222' 
TABS,ioos:station:wmo:42047:1,2013-01-02T16:00:00Z,27.8966,-93.5973,4.0,10.43301011,30.27592125,12.3,'11111222,11111222,11111222' 
TABS,ioos:station:wmo:42047:1,2013-01-02T16:30:00Z,27.8966,-93.5973,4.0,10.41297748,42.31409365,12.6,'11111222,11111222,11111222' 
TABS,ioos:station:wmo:42047:1,2013-01-02T17:00:00Z,27.8966,-93.5973,4.0,10.55891093,34.03592586,12.29,'11111222,11111222,11111222' 
TABS,ioos:station:wmo:42047:1,2013-01-02T17:30:00Z,27.8966,-93.5973,4.0,10.6080017,36.83719393,12.97,'11111222,11111222,11111222' 
TABS,ioos:station:wmo:42047:1,2013-01-02T18:00:00Z,27.8966,-93.5973,4.0,9.472217269,41.44737044,11.48,'11111222,11111222,11111222' 
TABS,ioos:station:wmo:42047:1,2013-01-02T18:30:00Z,27.8966,-93.5973,4.0,9.478153829,37.19603391,11.39,'11111222,11111222,11111222' 
TABS,ioos:station:wmo:42047:1,2013-01-02T19:00:00Z,27.8966,-93.5973,4.0,9.399920212,21.92565439,11.58,'11111222,11111222,11111222' 
TABS,ioos:station:wmo:42047:1,2013-01-02T19:30:00Z,27.8966,-93.5973,4.0,9.466092119,15.31326708,11.6,'11111222,11111222,11111222' 
TABS,ioos:station:wmo:42047:1,2013-01-02T20:00:00Z,27.8966,-93.5973,4.0,9.906487773,14.97587872,11.58,'11111222,11111222,11111222' 
TABS,ioos:station:wmo:42047:1,2013-01-02T20:30:00Z,27.8966,-93.5973,4.0,10.39267531,10.75827309,12.24,'11111222,11111222,11111222' 
TABS,ioos:station:wmo:42047:1,2013-01-02T21:00:00Z,27.8966,-93.5973,4.0,10.70605436,14.60712046,12.96,'11111222,11111222,11111222' 
TABS,ioos:station:wmo:42047:1,2013-01-02T21:30:00Z,27.8966,-93.5973,4.0,11.44609104,14.72803091,13.27,'11111222,11111222,11111222' 
TABS,ioos:station:wmo:42047:1,2013-01-02T22:00:00Z,27.8966,-93.5973,4.0,11.45,15.18904076,13.44,'11111222,11111222,11111222' 
TABS,ioos:station:wmo:42047:1,2013-01-02T22:30:00Z,27.8966,-93.5973,4.0,11.43798933,13.963105,13.5,'11111222,11111222,11111222' 
TABS,ioos:station:wmo:42047:1,2013-01-02T23:00:00Z,27.8966,-93.5973,4.0,11.73222059,18.12582684,13.96,'11111222,11111222,11111222' 
TABS,ioos:station:wmo:42047:1,2013-01-02T23:30:00Z,27.8966,-93.5973,4.0,12.17099832,11.18044361,14.66,'11111222,11111222,11111222' 
TABS,ioos:station:wmo:42047:1,2013-01-03T00:00:00Z,27.8966,-93.5973,4.0,12.84366381,11.40593186,15.47,'11111222,11111222,11111222' 
TABS,ioos:station:wmo:42047:1,2013-01-03T00:30:00Z,27.8966,-93.5973,4.0,12.96219503,11.97720428,15.59,'11111222,11111222,11111222' 
TABS,ioos:station:wmo:42047:1,2013-01-03T01:00:00Z,27.8966,-93.5973,4.0,12.96950269,26.16964248,15.58,'11111222,11111222,11111222' 
TABS,ioos:station:wmo:42047:1,2013-01-03T01:30:00Z,27.8966,-93.5973,4.0,12.31513703,24.00473717,14.78,'11111222,11111222,11111222' 
TABS,ioos:station:wmo:42047:1,2013-01-03T02:00:00Z,27.8966,-93.5973,4.0,11.78586017,34.52575803,13.75,'11111222,11111222,11111222' 
TABS,ioos:station:wmo:42047:1,2013-01-03T02:30:00Z,27.8966,-93.5973,4.0,11.12118699,27.99341649,12.9,'11111222,11111222,11111222' 
TABS,ioos:station:wmo:42047:1,2013-01-03T03:00:00Z,27.8966,-93.5973,4.0,11.21478043,30.42899852,13.15,'11111222,11111222,11111222' 
TABS,ioos:station:wmo:42047:1,2013-01-03T03:30:00Z,27.8966,-93.5973,4.0,10.85471787,31.55188985,12.66,'11111222,11111222,11111222' 
TABS,ioos:station:wmo:42047:1,2013-01-03T04:00:00Z,27.8966,-93.5973,4.0,10.1788801,23.13919719,13.11,'11111222,11111222,11111222' 
TABS,ioos:station:wmo:42047:1,2013-01-03T04:30:00Z,27.8966,-93.5973,4.0,10.48282405,26.27145874,12.44,'11111222,11111222,11111222' 
TABS,ioos:station:wmo:42047:1,2013-01-03T05:00:00Z,27.8966,-93.5973,4.0,10.62367639,27.77082456,12.9,'11111222,11111222,11111222' 
TABS,ioos:station:wmo:42047:1,2013-01-03T05:30:00Z,27.8966,-93.5973,4.0,10.41237725,27.45072312,13.14,'11111222,11111222,11111222' 
TABS,ioos:station:wmo:42047:1,2013-01-03T06:00:00Z,27.8966,-93.5973,4.0,9.268710806,40.09811469,12.11,'11111222,11111222,11111222' 
TABS,ioos:station:wmo:42047:1,2013-01-03T06:30:00Z,27.8966,-93.5973,4.0,9.539161389,24.79165227,12.27,'11111222,11111222,11111222' 
TABS,ioos:station:wmo:42047:1,2013-01-03T07:00:00Z,27.8966,-93.5973,4.0,10.52956314,23.44839874,12.7,'11111222,11111222,11111222' 
TABS,ioos:station:wmo:42047:1,2013-01-03T07:30:00Z,27.8966,-93.5973,4.0,10.37193328,27.38005617,13.52,'11111222,11111222,11111222' 
TABS,ioos:station:wmo:42047:1,2013-01-03T08:00:00Z,27.8966,-93.5973,4.0,9.346678554,30.90039592,11.46,'11111222,11111222,11111222' 
TABS,ioos:station:wmo:42047:1,2013-01-03T08:30:00Z,27.8966,-93.5973,4.0,9.369610451,32.97743574,11.29,'11111222,11111222,11111222' 
TABS,ioos:station:wmo:42047:1,2013-01-03T09:00:00Z,27.8966,-93.5973,4.0,10.82863796,41.18064093,13.33,'11111222,11111222,11111222' 
TABS,ioos:station:wmo:42047:1,2013-01-03T09:30:00Z,27.8966,-93.5973,4.0,9.453041838,42.94204318,11.66,'11111222,11111222,11111222' 
TABS,ioos:station:wmo:42047:1,2013-01-03T10:00:00Z,27.8966,-93.5973,4.0,9.861642865,37.91544993,11.88,'11111222,11111222,11111222' 
TABS,ioos:station:wmo:42047:1,2013-01-03T10:30:00Z,27.8966,-93.5973,4.0,9.70051545,52.53911182,11.99,'11111222,11111222,11111222' 
TABS,ioos:station:wmo:42047:1,2013-01-03T11:00:00Z,27.8966,-93.5973,4.0,8.98569975,40.03386111,10.97,'11111222,11111222,11111222' 
TABS,ioos:station:wmo:42047:1,2013-01-03T11:30:00Z,27.8966,-93.5973,4.0,9.574053478,32.32861948,11.73,'11111222,11111222,11111222' 
TABS,ioos:station:wmo:42047:1,2013-01-03T12:00:00Z,27.8966,-93.5973,4.0,10.68939662,29.97064466,12.65,'11111222,11111222,11111222' 
TABS,ioos:station:wmo:42047:1,2013-01-03T12:30:00Z,27.8966,-93.5973,4.0,10.54982938,26.75908271,12.7,'11111222,11111222,11111222' 
TABS,ioos:station:wmo:42047:1,2013-01-03T13:00:00Z,27.8966,-93.5973,4.0,10.63904131,20.5809993,12.78,'11111222,11111222,11111222' 
TABS,ioos:station:wmo:42047:1,2013-01-03T13:30:00Z,27.8966,-93.5973,4.0,10.47507995,21.74020606,13.39,'11111222,11111222,11111222' 
TABS,ioos:station:wmo:42047:1,2013-01-03T14:00:00Z,27.8966,-93.5973,4.0,11.01302865,19.52058263,13.3,'11111222,11111222,11111222' 
TABS,ioos:station:wmo:42047:1,2013-01-03T14:30:00Z,27.8966,-93.5973,4.0,11.02952855,27.42438112,13.38,'11111222,11111222,11111222' 
TABS,ioos:station:wmo:42047:1,2013-01-03T15:00:00Z,27.8966,-93.5973,4.0,10.58135152,34.21541166,12.68,'11111222,11111222,11111222' 
TABS,ioos:station:wmo:42047:1,2013-01-03T15:30:00Z,27.8966,-93.5973,4.0,10.05626173,44.1133245,12.66,'11111222,11111222,11111222' 
TABS,ioos:station:wmo:42047:1,2013-01-03T16:00:00Z,27.8966,-93.5973,4.0,11.14121178,33.50435613,11.68,'11111222,11111222,11111222' 
TABS,ioos:station:wmo:42047:1,2013-01-03T16:30:00Z,27.8966,-93.5973,4.0,9.993127639,33.32403253,11.87,'11111222,11111222,11111222' 
TABS,ioos:station:wmo:42047:1,2013-01-03T17:00:00Z,27.8966,-93.5973,4.0,8.768015739,38.09820356,10.38,'11111222,11111222,11111222' 
TABS,ioos:station:wmo:42047:1,2013-01-03T17:30:00Z,27.8966,-93.5973,4.0,8.538594732,29.92770702,10.51,'11111222,11111222,11111222' 
TABS,ioos:station:wmo:42047:1,2013-01-03T18:00:00Z,27.8966,-93.5973,4.0,9.029180472,35.94310173,11.03,'11111222,11111222,11111222' 
TABS,ioos:station:wmo:42047:1,2013-01-03T18:30:00Z,27.8966,-93.5973,4.0,9.027701812,30.85462949,11.36,'11111222,11111222,11111222' 
TABS,ioos:station:wmo:42047:1,2013-01-03T19:00:00Z,27.8966,-93.5973,4.0,9.079350197,32.58706518,10.8,'11111222,11111222,11111222' 
TABS,ioos:station:wmo:42047:1,2013-01-03T19:30:00Z,27.8966,-93.5973,4.0,9.329892818,29.75221836,11.55,'11111222,11111222,11111222' 
TABS,ioos:station:wmo:42047:1,2013-01-03T20:00:00Z,27.8966,-93.5973,4.0,8.584730631,37.61712522,11.37,'11111222,11111222,11111222' 
TABS,ioos:station:wmo:42047:1,2013-01-03T20:30:00Z,27.8966,-93.5973,4.0,9.052226246,36.46451257,10.88,'11111222,11111222,11111222' 
TABS,ioos:station:wmo:42047:1,2013-01-03T21:00:00Z,27.8966,-93.5973,4.0,9.429872746,32.30780365,12.06,'11111222,11111222,11111222' 
TABS,ioos:station:wmo:42047:1,2013-01-03T21:30:00Z,27.8966,-93.5973,4.0,8.986178276,35.12231308,11.1,'11111222,11111222,11111222' 
TABS,ioos:station:wmo:42047:1,2013-01-03T22:00:00Z,27.8966,-93.5973,4.0,9.424531819,32.25642125,11.17,'11111222,11111222,11111222' 
TABS,ioos:station:wmo:42047:1,2013-01-03T22:30:00Z,27.8966,-93.5973,4.0,9.146015526,38.07248238,11.37,'11111222,11111222,11111222' 
TABS,ioos:station:wmo:42047:1,2013-01-03T23:00:00Z,27.8966,-93.5973,4.0,8.872440476,39.05283516,10.54,'11111222,11111222,11111222' 
TABS,ioos:station:wmo:42047:1,2013-01-03T23:30:00Z,27.8966,-93.5973,4.0,9.238149165,40.25790565,11.57,'11111222,11111222,11111222' 
TABS,ioos:station:wmo:42047:1,2013-01-04T00:00:00Z,27.8966,-93.5973,4.0,8.87037767,43.44659436,10.42,'11111222,11111222,11111222' 
TABS,ioos:station:wmo:42047:1,2013-01-04T00:30:00Z,27.8966,-93.5973,4.0,8.543535568,46.13785866,10.39,'11111222,11111222,11111222' 
TABS,ioos:station:wmo:42047:1,2013-01-04T01:00:00Z,27.8966,-93.5973,4.0,8.826075005,41.60088547,10.33,'11111222,11111222,11111222' 
TABS,ioos:station:wmo:42047:1,2013-01-04T01:30:00Z,27.8966,-93.5973,4.0,9.405742927,50.52167947,10.79,'11111222,11111222,11111222' 
TABS,ioos:station:wmo:42047:1,2013-01-04T02:00:00Z,27.8966,-93.5973,4.0,9.044495564,48.27144234,11.01,'11111222,11111222,11111222' 
TABS,ioos:station:wmo:42047:1,2013-01-04T02:30:00Z,27.8966,-93.5973,4.0,9.9860002,36.85812578,11.67,'11111222,11111222,11111222' 
TABS,ioos:station:wmo:42047:1,2013-01-04T03:00:00Z,27.8966,-93.5973,4.0,9.286560181,36.24027501,11.61,'11111222,11111222,11111222' 
TABS,ioos:station:wmo:42047:1,2013-01-04T03:30:00Z,27.8966,-93.5973,4.0,9.352181564,42.18271558,11.04,'11111222,11111222,11111222' 
TABS,ioos:station:wmo:42047:1,2013-01-04T04:00:00Z,27.8966,-93.5973,4.0,9.078793973,42.81252701,10.96,'11111222,11111222,11111222' 
TABS,ioos:station:wmo:42047:1,2013-01-04T04:30:00Z,27.8966,-93.5973,4.0,9.015897071,48.95722817,10.64,'11111222,11111222,11111222' 
TABS,ioos:station:wmo:42047:1,2013-01-04T05:00:00Z,27.8966,-93.5973,4.0,8.8141931,56.38170565,11.49,'11111222,11111222,11111222' 
TABS,ioos:station:wmo:42047:1,2013-01-04T05:30:00Z,27.8966,-93.5973,4.0,8.418135185,55.64887907,10.26,'11111222,11111222,11111222' 
TABS,ioos:station:wmo:42047:1,2013-01-04T06:00:00Z,27.8966,-93.5973,4.0,8.797783812,54.81023588,10.76,'11111222,11111222,11111222' 
TABS,ioos:station:wmo:42047:1,2013-01-04T06:30:00Z,27.8966,-93.5973,4.0,8.631859591,51.0185031,10.44,'11111222,11111222,11111222' 
TABS,ioos:station:wmo:42047:1,2013-01-04T07:00:00Z,27.8966,-93.5973,4.0,9.06307343,50.86594631,11.4,'11111222,11111222,11111222' 
TABS,ioos:station:wmo:42047:1,2013-01-04T07:30:00Z,27.8966,-93.5973,4.0,9.018492113,54.47675512,11.31,'11111222,11111222,11111222' 
TABS,ioos:station:wmo:42047:1,2013-01-04T08:00:00Z,27.8966,-93.5973,4.0,8.837335571,55.46442398,10.85,'11111222,11111222,11111222' 
TABS,ioos:station:wmo:42047:1,2013-01-04T08:30:00Z,27.8966,-93.5973,4.0,8.009450668,57.6985441,10.1,'11111222,11111222,11111222' 
TABS,ioos:station:wmo:42047:1,2013-01-04T09:00:00Z,27.8966,-93.5973,4.0,8.63669497,50.87363209,10.77,'11111222,11111222,11111222' 
TABS,ioos:station:wmo:42047:1,2013-01-04T09:30:00Z,27.8966,-93.5973,4.0,8.528546183,50.28011759,10.45,'11111222,11111222,11111222' 
TABS,ioos:station:wmo:42047:1,2013-01-04T10:00:00Z,27.8966,-93.5973,4.0,8.568319555,52.63492961,10.44,'11111222,11111222,11111222' 
TABS,ioos:station:wmo:42047:1,2013-01-04T10:30:00Z,27.8966,-93.5973,4.0,8.665817907,61.00926129,10.5,'11111222,11111222,11111222' 
TABS,ioos:station:wmo:42047:1,2013-01-04T11:00:00Z,27.8966,-93.5973,4.0,8.515286255,65.36078013,10.65,'11111222,11111222,11111222' 
TABS,ioos:station:wmo:42047:1,2013-01-04T11:30:00Z,27.8966,-93.5973,4.0,8.644865528,63.84955382,10.19,'11111222,11111222,11111222' 
TABS,ioos:station:wmo:42047:1,2013-01-04T12:00:00Z,27.8966,-93.5973,4.0,8.06357861,62.92615616,10.39,'11111222,11111222,11111222' 
TABS,ioos:station:wmo:42047:1,2013-01-04T12:30:00Z,27.8966,-93.5973,4.0,8.712823882,73.87356319,10.51,'11111222,11111222,11111222' 
TABS,ioos:station:wmo:42047:1,2013-01-04T13:00:00Z,27.8966,-93.5973,4.0,8.899134789,75.35436162,10.75,'11111222,11111222,11111222' 
TABS,ioos:station:wmo:42047:1,2013-01-04T13:30:00Z,27.8966,-93.5973,4.0,9.305589718,84.32575869,11.78,'11111222,11111222,11111222' 
TABS,ioos:station:wmo:42047:1,2013-01-04T14:00:00Z,27.8966,-93.5973,4.0,8.62299252,84.27577621,10.48,'11111222,11111222,11111222' 
TABS,ioos:station:wmo:42047:1,2013-01-04T14:30:00Z,27.8966,-93.5973,4.0,9.586344454,75.0065969,11.49,'11111222,11111222,11111222' 
TABS,ioos:station:wmo:42047:1,2013-01-04T15:00:00Z,27.8966,-93.5973,4.0,8.482175429,74.40680461,10.1,'11111222,11111222,11111222' 
TABS,ioos:station:wmo:42047:1,2013-01-04T15:30:00Z,27.8966,-93.5973,4.0,8.427105078,67.75632815,9.59,'11111222,11111222,11111222' 
TABS,ioos:station:wmo:42047:1,2013-01-04T16:00:00Z,27.8966,-93.5973,4.0,7.611425622,46.59673281,9.22,'11111222,11111222,11111222' 
TABS,ioos:station:wmo:42047:1,2013-01-04T16:30:00Z,27.8966,-93.5973,4.0,8.432585606,67.84493766,9.81,'11111222,11111222,11111222' 
TABS,ioos:station:wmo:42047:1,2013-01-04T17:00:00Z,27.8966,-93.5973,4.0,8.059503707,62.67154108,10.09,'11111222,11111222,11111222' 
TABS,ioos:station:wmo:42047:1,2013-01-04T17:30:00Z,27.8966,-93.5973,4.0,8.563089396,67.47755864,10.49,'11111222,11111222,11111222' 
TABS,ioos:station:wmo:42047:1,2013-01-04T18:00:00Z,27.8966,-93.5973,4.0,8.104566614,66.28120029,10.34,'11111222,11111222,11111222' 